FENGYUN 1C DEB, 41005

Orbit data source: Space-Track

FENGYUN 1C DEB, 41005 is space debris in SSO originally from a launch on Mon, 10 May 1999 UTC launched from the Taiyaun Space Center, China (TSC). Fengyun 1C debris stems from the Chinese weather satellite Fengyun-1C, which was intentionally destroyed by a Chinese anti-satellite missile in 2007. This event dramatically increased the amount of space debris, with thousands of trackable fragments posing hazards to satellites and human spaceflight. The Fengyun 1C debris cloud has become a focal point in discussions about space sustainability and the need for international regulations to prevent the creation of new debris.

Loading next visibility...
Identifier
41005, 1999-025EXK
Orbit
SSO
Country
Flag of CNCN / PRC
Related business
Manufacturer
Unknown
Mission
Spacecraft
Bus & Motor
Unknown
Mass
Unknown
Launch date (UTC)
1999-05-10 (27 years ago)
Launch vehicle
Unknown
Launch site
Taiyaun Space Center, China (TSC)
Object type
Payload
Rocket body
Debris
Shape & HBR
Unknown shape, 0.1 m
Radar Cross Section
Small (<0.1 m²)

Expand to show TLE details & history
Last TLE update: 3 days ago

TLE from 3 days ago
0 FENGYUN 1C DEB
1 41005U 99025EXK 26170.32568187  .00001010  00000-0  58224-3 0  9997
2 41005  98.9378 195.8922 0568169 330.7315  26.3066 13.51446660549275
Epoch: 2026-06-19T07:48Z
TLE epoch observation values (Epoch: 2026-06-19T07:48:58.913Z)
Latitude
-0.00003°
Longitude
171.09046°
Altitude
695.61 km
Speed
7.695 km/s
True Right ascension
13h 03m 34s
True Declination
0° 00' 00"
Sunlit
Object was in daylight at epoch
Visualization orbit readout
Latitude
Unknown
Longitude
Unknown
Altitude
Unknown
Speed
Unknown
Apparent Right ascension
Unknown
Apparent Declination
Unknown
Sunlit
N/A
Visualization observer readout
Local Sidereal Time
00:50:18
Azimuth
Unknown
Elevation
Unknown
Doppler factor
Unknown
Orbital elements
Apogee altitude
1,487.039 km
Perigee altitude
641.339 km
Semi-major axis
7,442.326 km
Eccentricity
0.05682
Inclination
98.9378°
RAAN
195.8922°
Arg. of periapsis
330.7315°
True anomaly
29.38611°
Mean anomaly
26.3066°
Eccentric anomaly
27.82618°
Mean motion
3.38049 °/min
Orbital period
106.49 mins
BSTAR
0.00058224
Loading maneuver chart data...
Computing Atmospheric mass density...

Documentation

Showing up to 5 results
|